Regional Weather Roundup
Issued by NWS

Home | Current Version | Previous Version | Text Only | Print | Product List | Glossary Off
Versions: 1 2 3 4 5 6 7 8 9 10 11 12 13 14 15 16 17 18 19 20 21 22 23 24 25 26 27 28 29 30 31 32 33 34 35 36 37 38 39 40 41 42 43 44 45 46 47 48 49 50

614
ASUS43 KOAX 200410
RWRNE

WEATHER ROUNDUP FOR NEBRASKA
NATIONAL WEATHER SERVICE OMAHA NE
1000 PM CST FRI JAN 19 2018

NOTES: SATELLITE DATA IS BEING USED TO AUGMENT CLOUD COVER ABOVE
       12000 FEET.
       "FAIR" INDICATES FEW OR NO CLOUDS BELOW 12,000 FEET WITH NO
       SIGNIFICANT WEATHER AND/OR OBSTRUCTIONS TO VISIBILITY.


NEZ001>004-019>022-054>056-200500-
NEBRASKA PANHANDLE

CITY           SKY/WX    TMP DP  RH WIND       PRES   REMARKS
SCOTTSBLUFF    CLOUDY    36  30  79 E7        29.75R WCI  30
ALLIANCE       MOCLDY    27  27 100 E5        29.76R WCI  22
CHADRON        PTCLDY    29  28  96 W3        29.77R
GORDON         FAIR      28  26  93 CALM      29.75R
KIMBALL        CLOUDY    36  26  65 S3        29.75S
SIDNEY         CLOUDY    34  25  69 NE3       29.75R
$$

NEZ057>060-069>072-079>082-200500-
SOUTHWEST NEBRASKA

CITY           SKY/WX    TMP DP  RH WIND       PRES   REMARKS
NORTH PLATTE   CLOUDY    37  30  75 NW6       29.78R WCI  32
IMPERIAL       CLOUDY    34  28  79 N7        29.75R WCI  28
LEXINGTON      CLOUDY    35  30  82 CALM      29.74S
MCCOOK         CLOUDY    34  25  69 NW6       29.73R WCI  29
OGALLALA       CLOUDY    39  32  76 NE9       29.77S WCI  33
$$

NEZ005>010-023>029-035>040-094-200500-
NORTH CENTRAL NEBRASKA

CITY           SKY/WX    TMP DP  RH WIND       PRES   REMARKS
VALENTINE      PTCLDY    32  29  88 SW3       29.76S
AINSWORTH      CLOUDY    32  31  94 W5        29.76S WCI  27
BROKEN BOW     CLOUDY    40  31  70 N6        29.75R
O`NEILL        CLOUDY    35  32  90 NW6       29.76S WCI  29
ORD            CLOUDY    34  30  85 NW7       29.75R WCI  28
THEDFORD       CLOUDY    33  31  94 W5        29.79R WCI  28
$$

NEZ041-046>049-061>064-073>077-083>087-200500-
SOUTH CENTRAL NEBRASKA

CITY           SKY/WX    TMP DP  RH WIND       PRES   REMARKS
GRAND ISLAND   CLOUDY    32  30  92 N3        29.75R
AURORA         CLOUDY    34  26  73 CALM      29.74S
HASTINGS       CLOUDY    31  25  78 SE3       29.73F
HEBRON         CLOUDY    31  26  81 CALM      29.75R
HOLDREGE       CLOUDY    35  28  74 N5        29.72S WCI  31
KEARNEY        CLOUDY    36  30  79 N6        29.74S WCI  31
YORK           CLOUDY    36  28  75 S6        29.74F WCI  31
$$

NEZ011>018-030>034-042>045-200500-
NORTHEAST NEBRASKA

CITY           SKY/WX    TMP DP  RH WIND       PRES   REMARKS
NORFOLK        CLOUDY    34  30  85 NW5       29.73R WCI  30
ALBION         CLOUDY    33  31  90 NW7       29.75R WCI  27
BLAIR          CLOUDY    39  29  67 SW7       29.74R WCI  34
COLUMBUS       CLOUDY    27  24  89 CALM      29.76R
FREMONT        CLOUDY    37  29  72 SW5       29.75R WCI  33
TEKAMAH        CLOUDY    33  26  75 CALM      29.75R
WAYNE          CLOUDY    32  32  98 NW5       29.75R WCI  28
$$

NEZ050>053-065>068-078-088>093-200500-
SOUTHEAST NEBRASKA

CITY           SKY/WX    TMP DP  RH WIND       PRES   REMARKS
LINCOLN        CLOUDY    31  25  78 CALM      29.78R
OMAHA EPPLEY   CLOUDY    33  27  78 SE8       29.75S WCI  26
BEATRICE       CLOUDY    37  28  72 CALM      29.76S
FALLS CITY     CLOUDY    34  26  72 S7        29.79S WCI  28
NEBRASKA CITY  CLOUDY    37  30  78 SW7       29.77R WCI  31
PLATTSMOUTH    CLOUDY    36  29  76 S7        29.76S WCI  30
$$

NEZ044-045-051>053-067-200500-
OMAHA AREA

CITY           SKY/WX    TMP DP  RH WIND       PRES   REMARKS
OMAHA EPPLEY   CLOUDY    33  27  78 SE8       29.75S WCI  26
BLAIR          CLOUDY    39  29  67 SW7       29.74R WCI  34
FREMONT        CLOUDY    37  29  72 SW5       29.75R WCI  33
MILLARD        CLOUDY    33  28  81 CALM      29.76S
OFFUTT AFB     CLOUDY    29  25  85 E3        29.75S
PLATTSMOUTH    CLOUDY    36  29  76 S7        29.76S WCI  30
WAHOO          FAIR      38  27  66 SW6       29.75R WCI  33
$$




USA.gov is the U.S. government's official web portal to all federal, state and local government web resources and services.